Back to catalog

DELTA 4 R/B

AliveMEO
NORAD 41585·ROCKET BODY·🇺🇸 United States

Launched Jun 11, 2016 from Cape Canaveral Space Force Station

Loading…

Next Passes (next 24 hours)

TLE

FreshSource: Space-Track

Epoch: Sep 14, 2026, 01:33 UTC

1 41585U 16036B   26257.06521030 -.00000097  00000-0  00000-0 0  9995
2 41585   5.5761 359.1833 0230432 254.6539 102.8304  1.04079129 26659

Track DELTA 4 R/B in real time with AllMySat

Download on the App Store